Regional Weather Roundup
Issued by NWS Green Bay, WI

Home | Current Version | Previous Version | Text Only | Print | Product List | Glossary On
Versions: 1 2 3 4 5 6 7 8 9 10 11 12 13 14 15 16 17 18 19 20 21 22 23 24 25 26 27 28 29 30 31 32 33 34 35 36 37 38 39 40 41 42 43 44 45 46 47 48 49 50
322
ASUS43 KGRB 260100
RWRGRB

NORTH-CENTRAL AND NORTHEAST WISCONSIN REGIONAL WEATHER ROUNDUP
NATIONAL WEATHER SERVICE GREEN BAY WI
800 PM CDT WED APR 25 2018

WIZ005-009-010>012-018-019-260200-
NORTH CENTRAL WISCONSIN

CITY           SKY/WX    TMP DP  RH WIND       PRES   REMARKS
IRONWOOD       FAIR      46  21  37 CALM      30.00F
MANITOWISH WTR NOT AVBL
ARBOR VITAE    NOT AVBL
EAGLE RIVER    FAIR      45  19  35 W3        29.99S
LAND O LAKES   FAIR      44  18  35 CALM      30.00S
RHINELANDER    FAIR      50  17  27 CALM      30.00S
PHILLIPS       FAIR      49  22  34 CALM      29.99S
ANTIGO         NOT AVBL
TOMAHAWK       NOT AVBL
MERRILL        NOT AVBL
$$

WIZ013-073-260200-
NORTHEAST WISCONSIN

CITY           SKY/WX    TMP DP  RH WIND       PRES   REMARKS
IRON MOUNTAIN  FAIR      47  23  38 CALM      29.97F
MARINETTE      FAIR      42  25  50 E3        30.02F
$$

WIZ017-030-035>037-045-260200-
CENTRAL WISCONSIN

CITY           SKY/WX    TMP DP  RH WIND       PRES   REMARKS
MEDFORD        NOT AVBL
WAUSAU         FAIR      51  23  33 W3        29.98S
MOSINEE        PTCLDY    50  25  37 W3        30.01S
MARSHFIELD     FAIR      51  30  44 CALM      29.99F
WISC RAPIDS    FAIR      48  27  44 CALM      30.01F
STEVENS POINT  NOT AVBL
WAUPACA        FAIR      54  24  31 CALM      30.01S
SHAWANO        FAIR      54  25  32 W3        29.99S
CLINTONVILLE   FAIR      53  22  30 W3        30.00S
WAUTOMA        FAIR      50  30  46 CALM      30.02
$$

WIZ038-039-048-051-260200-
FOX VALLEY

CITY           SKY/WX    TMP DP  RH WIND       PRES   REMARKS
NWS GREEN BAY  FAIR      51  35  54 S6        30.00F
APPLETON       PTCLDY    50  25  37 S6        30.00S
OSHKOSH        FAIR      43  34  70 S5        30.01F
FOND DU LAC    FAIR      50  27  40 CALM      30.01F
$$

WIZ022-050-052-260200-
EAST CENTRAL WISCONSIN

CITY           SKY/WX    TMP DP  RH WIND       PRES   REMARKS
EPHRAIM        NOT AVBL
WASHINGTON ISL NOT AVBL
STURGEON BAY   FAIR      40  27  59 SE5       30.02F
MANITOWOC      FAIR      39  29  67 SE3       30.04S
SHEBOYGAN      FAIR      41  29  62 E3        30.03S
$$

LMZ563-521-522-541>543-260200-
LAKESHORE

STATION/POSITION TIME  TEMP    WIND        PRES    VSBY  WAVE
                       AIR SEA DIR/SP/G                  HT/PER
                 (UTC) (F)     (DEG/KT/KT) (MB)    (MI)  (FT/S)
SHEBOYGAN LKSHOR 0000   40      CALM  /  1 1017.6F
KEWAUNEE LKSHORE 0030   40     140/  3/  5 1016.1F
NORTHPORT PIER   0040   41                 1016.6S
SISTER BAY LKSHO 0012   46     110/  7/  8   N/A
MENOMINEE LKSHOR 0030   38      40/  2/  3 1016.1F
$$




USA.gov is the U.S. government's official web portal to all federal, state and local government web resources and services.